Location: Risskov
(56.1972°N, 10.2480°E)
Time: 23:25:32
(UTC+00:00)

Cosmos 1328 Rocket - Pass Details

Date: 05 July 2020
Orbit: 602 x 627 km, 82.5° (Epoch: 14 August)

Event Time Altitude Azimuth Distance (km) Brightness Sun altitude
Rises 22:40:22 0° 347° (NNW) 2,874 9.3 -10.6°
Reaches altitude 10° 22:42:35 10° 348° (NNW) 1,964 7.8 -10.7°
Maximum altitude 22:46:56 90° 132° (SE) 611 3.5 -10.8°
Enters shadow 22:50:26 15° 169° (S) 1,620 5.0 -10.8°
